Weather History for St. Joseph, MO

Change the Weather History Date:

Friday, September 20, 2013

  Actual Average Record
Temperature  
Mean Temperature 60 °F 65 °F  
Max Temperature 71 °F 78 °F 95 °F (1980)
Min Temperature 48 °F 52 °F 32 °F (1991)
Degree Days  
Heating Degree Days 5 3  
Month to date heating degree days 12 29  
Since 1 July heating degree days 14 34  
Cooling Degree Days 0 3  
Month to date cooling degree days 169 97  
Year to date cooling degree days 1239 1174  
Growing Degree Days 10 (Base 50)    
Moisture  
Dew Point 51 °F    
Average Humidity 69    
Maximum Humidity 93    
Minimum Humidity 44    
Precipitation  
Precipitation 0.00 in 0.11 in 2.20 in (1931)
Month to date precipitation 3.48 2.50  
Year to date precipitation 23.15 28.80  
Sea Level Pressure  
Sea Level Pressure 30.00 in    
Wind  
Wind Speed 8 mph (NW)    
Max Wind Speed 20 mph    
Max Gust Speed 24 mph    
Visibility 10 miles    
Events      
T = Trace of Precipitation, MM = Missing Value Source: NWS Daily Summary

Daily Weather History Graph

Daily Weather History Graph

Search for Another Location

Airport:

Trip Planner

Search our weather history database for the weather conditions in past years. The results will help you decide how hot, cold, wet, or windy it might be!

Date:

Astronomy

Sep. 20, 2013 Rise Set
Actual Time 7:05 AM CDT 7:19 PM CDT
Civil Twilight 6:38 AM CDT 7:46 PM CDT
Nautical Twilight 6:07 AM CDT 8:18 PM CDT
Astronomical Twilight 5:34 AM CDT 8:50 PM CDT
Moon 7:54 PM CDT (9/20) 8:20 AM CDT (9/20)
Length of Visible Light 13h 07m
Length of Day
12h 13m
Full, 98% of the Moon is Illuminated
Sep 20
Full
Sep 26
Last Quarter
Oct 4
New
Oct 11
First Quarter
Oct 18
Full

Hourly Weather History & Observations

Time (CDT) Temp. Dew Point Humidity Pressure Visibility Wind Dir Wind Speed Gust Speed Precip Events Conditions
12:53 AM 64.0 °F 57.9 °F 80% 29.92 in 10.0 mi NNW 10.4 mph - N/A   Clear
1:53 AM 61.0 °F 54.0 °F 78% 29.96 in 10.0 mi NNW 10.4 mph - N/A   Clear
2:53 AM 61.0 °F 54.0 °F 78% 29.98 in 10.0 mi NNW 6.9 mph - N/A   Mostly Cloudy
3:53 AM 60.1 °F 54.0 °F 80% 29.97 in 10.0 mi NNW 8.1 mph - N/A   Overcast
4:53 AM 57.9 °F 54.0 °F 87% 29.99 in 10.0 mi NW 6.9 mph - N/A   Clear
5:53 AM 57.0 °F 53.1 °F 87% 30.01 in 10.0 mi NW 5.8 mph - N/A   Clear
6:53 AM 57.0 °F 52.0 °F 83% 30.02 in 10.0 mi NNW 6.9 mph - N/A   Clear
7:53 AM 57.0 °F 53.1 °F 87% 30.05 in 10.0 mi NW 8.1 mph - N/A   Clear
8:53 AM 57.9 °F 51.1 °F 78% 30.06 in 10.0 mi NNW 10.4 mph - N/A   Clear
9:53 AM 60.1 °F 50.0 °F 69% 30.06 in 10.0 mi NNW 10.4 mph - N/A   Clear
10:53 AM 64.0 °F 50.0 °F 60% 30.06 in 10.0 mi NNW 11.5 mph - N/A   Clear
11:53 AM 66.0 °F 46.9 °F 50% 30.05 in 10.0 mi NNW 17.3 mph 21.9 mph N/A   Clear
12:53 PM 66.0 °F 48.0 °F 52% 30.04 in 10.0 mi NNW 16.1 mph 21.9 mph N/A   Clear
1:53 PM 68.0 °F 48.9 °F 50% 30.02 in 10.0 mi NNW 10.4 mph - N/A   Clear
2:53 PM 69.1 °F 46.9 °F 45% 29.99 in 10.0 mi NW 8.1 mph - N/A   Clear
3:53 PM 69.1 °F 48.0 °F 47% 29.97 in 10.0 mi WNW 10.4 mph - N/A   Clear
4:53 PM 70.0 °F 48.0 °F 46% 29.96 in 10.0 mi WNW 10.4 mph - N/A   Clear
5:53 PM 69.1 °F 48.0 °F 47% 29.97 in 10.0 mi NW 8.1 mph - N/A   Clear
6:53 PM 64.9 °F 51.1 °F 61% 29.97 in 10.0 mi NW 4.6 mph - N/A   Clear
7:53 PM 57.9 °F 51.1 °F 78% 29.98 in 10.0 mi WNW 4.6 mph - N/A   Clear
8:53 PM 55.0 °F 51.1 °F 86% 29.99 in 10.0 mi Calm Calm - N/A   Clear
9:53 PM 55.0 °F 50.0 °F 83% 30.00 in 10.0 mi Calm Calm - N/A   Clear
10:53 PM 51.1 °F 48.0 °F 89% 30.00 in 10.0 mi Calm Calm - N/A   Clear
11:53 PM 48.9 °F 46.9 °F 93% 30.01 in 10.0 mi NNW 3.5 mph - N/A   Clear